Location: Unspecified
(22.6800°N, 112.2000°E)
Time: 08:37:40
(UTC+08:00)

Courier 1B Rocket - Pass Details

Date: 07 August 2021
Orbit: 920 x 1202 km, 28.3° (Epoch: 22 September)

Event Time Altitude Azimuth Distance (km) Brightness Sun altitude
Rises 22:44:06 0° 251° (WSW) 4,072 8.4 -42.3°
Reaches altitude 10° 22:46:59 10° 252° (WSW) 3,090 7.7 -42.7°
Enters shadow 22:47:21 12° 252° (WSW) 2,969 7.6 -42.7°
